Location: Unspecified
(0.0000°N, 0.0000°E)
Time: 16:53:05
(UTC+00:00)

NOSS 3-3 (C) - Visible Passes

Search period start: 19 October 2019 00:00
Search period end: 29 October 2019 00:00
Orbit: 849 x 1364 km, 63.4° (Epoch: 08 October)

Date Brightness Start Highest point End Pass type
(mag) Time Alt. Az. Time Alt. Az. Time Alt. Az.
22 Oct 6.9 20:49:52 10° NNW 20:49:53 10° NNW 20:49:53 10° NNW visible
23 Oct 5.9 20:05:06 10° NNW 20:08:22 27° NNW 20:08:22 27° NNW visible
24 Oct 5.0 19:20:55 10° N 19:27:38 41° NE 19:27:38 41° NE visible
24 Oct 6.6 21:12:35 10° WNW 21:15:20 19° WNW 21:15:20 19° WNW visible
25 Oct 5.5 18:37:28 10° NNE 18:43:54 24° ENE 18:49:11 14° ESE visible
25 Oct 5.3 20:26:43 10° NW 20:34:45 50° WSW 20:42:44 10° S visible
26 Oct 4.6 19:41:35 10° NNW 19:50:00 84° WSW 19:58:23 10° SSE visible
27 Oct 4.7 18:57:03 10° N 19:05:15 59° ENE 19:13:27 10° SE visible
27 Oct 6.7 20:50:21 10° WNW 20:56:07 20° WSW 21:01:50 10° SSW visible
28 Oct 5.2 18:13:07 10° N 18:20:28 34° ENE 18:27:51 10° SE visible
28 Oct 6.0 20:03:50 10° NW 20:11:19 36° WSW 20:18:45 10° S visible
